Location: Red Deer
(52.2681°N, 113.8112°W)
Time: 19:47:23
(UTC-07:00)

N. Korean satellite - Pass Details

Date: 27 November 2022
Orbit: 407 x 442 km, 97.3° (Epoch: 05 February)

Event Time Altitude Azimuth Distance (km) Brightness Sun altitude
Rises 07:07:34 0° 2° (N) 2,534 10.0 -10.1°
Reaches altitude 10° 07:09:58 10° 346° (NNW) 1,652 8.9 -9.8°
Maximum altitude 07:12:40 21° 297° (WNW) 1,132 7.8 -9.4°
Drops below altitude 10° 07:15:21 10° 247° (WSW) 1,639 8.8 -9.0°
Sets 07:17:44 0° 231° (SW) 2,507 9.9 -8.7°
